Weather History for Conroe, TX

Change the Weather History Date:

Saturday, April 13, 2013

  Actual Average Record
Temperature  
Mean Temperature 61 °F -  
Max Temperature 78 °F 75 °F 87 °F (2001)
Min Temperature 44 °F 53 °F 39 °F (1997)
Degree Days  
Heating Degree Days 4    
Growing Degree Days 11 (Base 50)    
Moisture  
Dew Point 50 °F    
Average Humidity 72    
Maximum Humidity 100    
Minimum Humidity 40    
Precipitation  
Precipitation 0.01 in - - ()
Sea Level Pressure  
Sea Level Pressure 29.92 in    
Wind  
Wind Speed 3 mph (SE)    
Max Wind Speed 10 mph    
Max Gust Speed 20 mph    
Visibility 10 miles    
Events      
Averages and records for this station are not official NWS values.
T = Trace of Precipitation, MM = Missing Value Source: NWS Daily Summary

Daily Weather History Graph

Daily Weather History Graph

Search for Another Location

Airport:

Trip Planner

Search our weather history database for the weather conditions in past years. The results will help you decide how hot, cold, wet, or windy it might be!

Date:

Astronomy

Apr. 13, 2013 Rise Set
Actual Time 6:56 AM CDT 7:48 PM CDT
Civil Twilight 6:31 AM CDT 8:12 PM CDT
Nautical Twilight 6:02 AM CDT 8:41 PM CDT
Astronomical Twilight 5:33 AM CDT 9:11 PM CDT
Moon 8:59 AM CDT (4/13) 11:00 PM CDT (4/13)
Length of Visible Light 13h 40m
Length of Day
12h 51m
Waxing Crescent, 10% of the Moon is Illuminated
Apr 13
Waxing Crescent
Apr 18
First Quarter
Apr 25
Full
May 2
Last Quarter
May 9
New

Hourly Weather History & Observations

Time (CDT) Temp. Dew Point Humidity Pressure Visibility Wind Dir Wind Speed Gust Speed Precip Events Conditions
12:53 AM 48.9 °F 48.0 °F 97% 29.98 in 10.0 mi Calm Calm - N/A   Clear
1:53 AM 48.0 °F 46.9 °F 96% 29.97 in 10.0 mi Calm Calm - N/A   Clear
2:53 AM 46.9 °F 45.0 °F 93% 29.97 in 10.0 mi Calm Calm - N/A   Clear
3:53 AM 46.0 °F 44.1 °F 93% 29.97 in 10.0 mi Calm Calm - N/A   Clear
4:53 AM 45.0 °F 44.1 °F 97% 29.96 in 8.0 mi Calm Calm - N/A   Clear
5:53 AM 44.1 °F 43.0 °F 96% 29.96 in 8.0 mi Calm Calm - 0.01 in   Clear
6:53 AM 45.0 °F 44.1 °F 97% 29.98 in 9.0 mi Calm Calm - N/A   Clear
7:53 AM 48.0 °F 48.0 °F 100% 29.99 in 6.0 mi Calm Calm - N/A   Clear
8:53 AM 55.9 °F 54.0 °F 93% 30.00 in 6.0 mi Calm Calm - N/A   Clear
9:53 AM 64.0 °F 55.9 °F 75% 29.99 in 10.0 mi Variable 3.5 mph - N/A   Clear
10:53 AM 69.1 °F 55.9 °F 63% 29.98 in 10.0 mi Variable 6.9 mph - N/A   Clear
11:53 AM 72.0 °F 54.0 °F 53% 29.96 in 10.0 mi ESE 10.4 mph 19.6 mph N/A   Clear
12:53 PM 73.0 °F 52.0 °F 48% 29.95 in 10.0 mi SE 9.2 mph - N/A   Clear
1:53 PM 73.9 °F 54.0 °F 50% 29.92 in 10.0 mi SE 8.1 mph - N/A   Clear
2:53 PM 75.0 °F 52.0 °F 44% 29.88 in 10.0 mi SE 10.4 mph 18.4 mph N/A   Clear
3:53 PM 78.1 °F 52.0 °F 40% 29.85 in 10.0 mi Variable 6.9 mph - N/A   Clear
4:53 PM 75.9 °F 50.0 °F 40% 29.84 in 10.0 mi ESE 9.2 mph - N/A   Clear
5:53 PM 73.9 °F 48.9 °F 41% 29.83 in 10.0 mi ESE 8.1 mph - N/A   Overcast
6:53 PM 71.1 °F 48.0 °F 44% 29.85 in 10.0 mi SE 10.4 mph - N/A   Mostly Cloudy
7:53 PM 66.9 °F 48.0 °F 51% 29.84 in 10.0 mi SE 6.9 mph - N/A   Clear
8:53 PM 63.0 °F 50.0 °F 63% 29.86 in 10.0 mi ESE 3.5 mph - N/A   Clear
9:53 PM 57.0 °F 52.0 °F 83% 29.86 in 10.0 mi Calm Calm - N/A   Clear
10:53 PM 54.0 °F 51.1 °F 90% 29.85 in 10.0 mi Calm Calm - N/A   Clear
11:53 PM 53.1 °F 51.1 °F 93% 29.84 in 10.0 mi Calm Calm - N/A   Clear